Location: *
(38.9555°S, 57.3572°E)
Time: 00:54:48
(UTC+00:00)

NOSS 0 Rocket - Pass Details

Date: 15 July 2020
Orbit: 934 x 955 km, 70.0° (Epoch: 06 August)

Event Time Altitude Azimuth Distance (km) Brightness Sun altitude
Rises 13:49:06 0° 202° (SSW) 3,638 7.0 -8.2°
Reaches altitude 10° 13:51:41 10° 199° (SSW) 2,684 6.3 -8.7°
Maximum altitude 13:57:54 67° 116° (ESE) 1,024 3.9 -9.8°
Drops below altitude 10° 14:04:00 10° 34° (NNE) 2,646 6.1 -10.9°
Sets 14:06:32 0° 31° (NNE) 3,582 6.8 -11.4°
